Location: Helion Bumpstead
(52.0500°N, 0.4000°E)
Time: 21:07:58
(UTC+00:00)

Meteor 1-24 Rocket - Pass Details

Date: 15 November 2025
Orbit: 788 x 926 km, 81.3° (Epoch: 06 December)

Event Time Altitude Azimuth Distance (km) Brightness Sun altitude
Exits shadow 04:23:22 75° 320° (NW) 866 3.5 -26.7°
Drops below altitude 10° 04:28:32 10° 11° (N) 2,416 6.2 -25.9°
Sets 04:30:55 0° 13° (NNE) 3,336 7.0 -25.5°
